Location: Newark
(44.3681°N, 100.3364°W)
Time: 08:11:15
(UTC+00:00)

deb Explorer IX - Pass Details

Date: 21 February 2020
Orbit: 547 x 1100 km, 38.8° (Epoch: 04 April)

Event Time Altitude Azimuth Distance (km) Brightness Sun altitude
Rises 17:51:54 0° 234° (SW) 2,815 ? 33.2°
Reaches altitude 10° 17:54:30 10° 222° (SW) 1,864 ? 33.4°
Maximum altitude 17:58:03 27° 164° (SSE) 1,084 ? 33.6°
Drops below altitude 10° 18:01:31 10° 106° (ESE) 1,811 ? 33.8°
Sets 18:04:00 0° 93° (E) 2,718 ? 33.9°
